Regional Weather Roundup
Issued by NWS San Diego, CA

Home | Current Version | Previous Version | Text Only | Print | Product List | Glossary On
Versions: 1 2 3 4 5 6 7 8 9 10 11 12 13 14 15 16 17 18 19 20 21 22 23 24 25 26 27 28 29 30 31 32 33 34 35 36 37 38 39 40 41 42 43 44 45 46 47 48 49 50
000
ASUS46 KSGX 180410
RWRSGX

SAN DIEGO HOURLY WEATHER ROUNDUP
NATIONAL WEATHER SERVICE SAN DIEGO CA
900 PM PDT THU APR 17 2014

NOTE: "FAIR" INDICATES FEW OR NO CLOUDS BELOW 12,000 FEET WITH NO
SIGNIFICANT WEATHER AND/OR OBSTRUCTIONS TO VISIBILITY.

CAZ042-043-060-061-PZZ750-775-180500-

GREATER SAN DIEGO AREA

CITY           SKY/WX    TMP DP  RH WIND       PRES   REMARKS
LINDBERGH FLD  CLOUDY    63  52  67 S9        29.94R
NATIONAL CITY    N/A     62  54  76 SW12      29.93R
CHULA VISTA      N/A     61  55  79 SW3       29.86R
IMPERIAL BEACH CLOUDY    61  53  75 S12G20    29.94R
BROWN FIELD    CLOUDY    59  51  75 SW10      29.92R
MIRAMAR MCAS   CLOUDY    60  51  72 S10       29.92R
MONTGOMERY FLD CLOUDY    60  53  77 S8        29.93R

$$

NORTH SAN DIEGO COUNTY

CITY           SKY/WX    TMP DP  RH WIND       PRES   REMARKS
CAMP PENDLETON CLOUDY    60  52  74 SW5       29.92R
RED BEACH      CLOUDY    62  52  69 S7        29.91R
OCEANSIDE AP   CLOUDY    60  52  74 SW7       29.90R
VISTA            N/A     59  54  84 CALM      29.89R
CARLSBAD       CLOUDY    60  52  74 SW7       29.90R
DEL MAR          N/A     59  55  85 W3        29.93R
LA JOLLA SCRIP   N/A     60  55  84 SW6       29.90R
FALLBROOK        N/A     58  57  94 S3        29.90R
ESCONDIDO        N/A     59  53  81 SW1       29.93R
SAN MARCOS       N/A     58  53  83 CALM      29.89R
POWAY            N/A     60  53  79 CALM      29.93R
R. PENASQUITOS   N/A     59  53  78 CALM      29.92R

$$

EAST SAN DIEGO COUNTY

CITY           SKY/WX    TMP DP  RH WIND       PRES   REMARKS
RAMONA         CLOUDY    55  51  86 NW6       29.92R
SANTEE LAKES     N/A     60  54  81 SW7       29.94R
GILLESPIE FLD  CLOUDY    61  52  72 SW7       29.94R
LA MESA          N/A     59  55  84 SW3       29.87R
JAMUL            N/A     56  53  88 CALM      29.91R
DESCANSO N       N/A     56  50  81 CALM      29.74R
MT. LAGUNA OBS   N/A     53  40  61 CALM      29.60
CAMPO            N/A     57  50  77 SW6       29.88R

$$

ORANGE COUNTY AND THE LOS ANGELES BASIN

CITY           SKY/WX    TMP DP  RH WIND       PRES   REMARKS
JOHN WAYNE AP  CLOUDY    63  53  70 S12       29.91R
LAGUNA BEACH     N/A     61  56  83 S5        29.89R
LAKE FOREST FR   N/A     57  50  78 CALM      29.82R
SANTA ANA        N/A     62  56  80 CALM      29.87R
HUNTINGTON BCH   N/A     60  56  84 SE5       29.90R
LOS ALAMITOS   CLOUDY    61  54  77 S8        29.91R
FULLERTON      CLOUDY    62  53  72 S9        29.90R
LONG BEACH     CLOUDY    61  51  70 S7        29.91R
L.A. AP        CLOUDY    62  52  69 SE6       29.90R
L.A. DOWNTOWN  CLOUDY    62  53  72 CALM      29.89R

$$

THE INLAND EMPIRE

CITY           SKY/WX    TMP DP  RH WIND       PRES   REMARKS
CORONA         CLOUDY    60  53  77 W12G20    29.89R
CHINO          CLOUDY    59  53  80 W8        29.90R
ONTARIO        CLOUDY    60  53  77 W9        29.89R
RIVERSIDE AP   CLOUDY    61  53  75 W10       29.89R
RIV CYN CREST    N/A     62  60  91 NW3       29.85R
MORENO VALLEY    N/A     63  57  82 W1        27.95S
MARCH ARB      MOCLDY    62  53  73 VRB3      29.90R
HORSETHIEF CYN   N/A     61  49  65 NW6       29.89R
PERRIS           N/A     60  55  82 S6          N/A
MENIFEE          N/A     59  55  87 S8        29.94R
HEMET EAST       N/A     61  50  68 CALM      29.87R
TEMECULA         N/A     58  54  88 S3        29.86R

$$

SAN BERNARDINO AND RIVERSIDE COUNTY MOUNTAINS

CITY           SKY/WX    TMP DP  RH WIND       PRES   REMARKS
BIG BEAR AP    CLOUDY    52  32  46 CALM      30.06S
BIG BEAR SHEA    N/A     52  30  43 CALM      29.75F
ANGELUS OAKS     N/A     51  39  62 CALM      29.72S
PINE COVE        N/A     55  35  47 S3        29.78R

$$

SOUTHERN DESERT INCLUDING THE COACHELLA VALLEY

CITY           SKY/WX    TMP DP  RH WIND       PRES   REMARKS
PALM SPRINGS   CLOUDY    79  54  41 E5        29.82R
THOUSAND PALMS   N/A     78  51  38 E5        29.78R
PALM DESERT      N/A     79  53  39 CALM      29.76S
THERMAL        CLOUDY    78  50  37 E9        29.76R
BLYTHE         CLOUDY    81  38  21 SW8       29.79R
IMPERIAL AP    CLOUDY    77  40  26 SE12      29.76R
EL CENTRO NAS  CLOUDY    73  44  35 SE5       29.76S
YUMA AZ        CLOUDY    76  36  23 W8        29.81R
MEXICALI       MOCLDY    70  52  52 SE7       29.79R

$$

UPPER DESERT

CITY           SKY/WX    TMP DP  RH WIND       PRES   REMARKS
VICTORVILLE AP CLOUDY    66  48  52 S18G24    29.85R
HESPERIA         N/A     65  51  61 W12       29.87R
PALMDALE       CLOUDY    70  37  29 SW18      29.84R
LANCASTER      CLOUDY    67  43  41 SW14      29.85R
EDWARDS AFB    MOCLDY    70  36  28 W17       29.80R
DAGGETT        CLOUDY    77  29  17 NE8       29.79R
29 PALMS N     CLOUDY    75  35  23 SE6       29.90R
NEEDLES        MOCLDY    85  18   8 SW9       29.79R

$$

REGIONAL REPORTS

CITY           SKY/WX    TMP DP  RH WIND       PRES   REMARKS
SANTA BARBARA  CLOUDY    59  53  80 CALM      29.88R
SANDBERG       CLOUDY    58  45  62 SW7       29.95R
MT. WILSON       N/A     54  37  54 S12G18      N/A
LAS VEGAS NV   CLOUDY    81  18   9 S14G23    29.77R
PHOENIX AZ     MOCLDY    87  24  10 W7        29.80R
TIJUANA        CLOUDY    59  50  72 S8        29.94R

$$

OFFSHORE ISLANDS

CITY           SKY/WX    TMP DP  RH WIND       PRES   REMARKS
CATALINA ARPT  CLOUDY    54  49  83 SW6       29.92R
SAN NICOLAS IS CLOUDY   N/A N/A N/A N6        29.88R FOG

$$

MARINE AND OFFSHORE BUOY REPORTS

STATION/POSITION SKY/WX   TEMP    WIND        PRES    SWELL
                          AIR SEA DIR/SP/G            HT/PER/DIR
                          (F)     (DEG/KT/KT) (MB)    (FT/S/D)
S CLEMENTE BASIN           61 63  230/ 10/ 14 1012.1R   5/300/10
SAN NICOLAS IS.               59                N/A     5/300/11
SO. S. ROSA ISLA           57 58  310/ 12/ 14 1012.3R   7/11
W. S. BARBARA CH           55 55  320/ 10/ 12 1011.7R   7/310/10
S. MONICA BASIN            60 61  140/  4/  4 1011.7R   3/250/12
S PEDRO CHANNEL               61                N/A     2/250/12
DANA POINT                    60                N/A     2/190/14
CMP PENDLETON NS              61                N/A     2/210/13
OCEANSIDE OFFSHR              61                N/A     2/190/14
TORREY PINES OTR              61                N/A     2/240/12
LA JOLLA 1                 61 61  200/  7/  9 1013.2R
MISSION BAY BUOY              62                N/A     2/230/13
SAN DIEGO BAY                 65              1013.5R
POINT LOMA SOUTH              63                N/A     2/190/13

$$




USA.gov is the U.S. government's official web portal to all federal, state and local government web resources and services.